Location: Asheville, NC
(35.6000°N, 82.5500°W)
Time: 08:50:07
(UTC-05:00)

Vanguard 3 - Pass Details

Date: 17 February 2018
Orbit: 508 x 3264 km, 33.3° (Epoch: 19 February)

Event Time Altitude Azimuth Distance (km) Brightness Sun altitude
Rises 18:48:16 0° 265° (W) 2,613 12.3 -7.6°
Reaches altitude 10° 18:50:22 10° 262° (W) 1,709 10.6 -8.0°
Maximum altitude 18:53:59 65° 181° (S) 599 6.5 -8.8°
Enters shadow 18:58:13 11° 99° (E) 2,009 8.6 -9.6°
